QPF
0.05 0.05 0.04 0.04 0.03 0.02 0.02 0.02 0.02 0.02 0.03 0.02 0.03 0.03 0.03 0.04 0.06 0.06 0.06 0.12 0.09 0.07 0.06 0.05 0.03 0.03 0.04 0.04 0.05 0.07 0.06 0.07 0.05 0.04 0.03 0.03 0.03 0.03 0.03 0.04 0.06 0.07 0.07
0.04 0.04 0.04 0.04 0.04 0.04 0.03 0.02 0.02 0.03 0.03 0.01 0.01 0.03 0.03 0.03 0.03 0.04 0.05 0.04 0.06 0.06 0.06 0.06 0.05 0.04 0.05 0.05 0.04 0.06 0.04 0.05 0.05 0.04 0.03 0.03 0.04 0.04 0.03 0.05 0.06 0.07 0.07
0.02 0.03 0.02 0.03 0.04 0.06 0.07 0.06 0.04 0.04 0.02 0.02 0.03 0.03 0.02 0.02 0.02 0.03 0.05 0.05 0.06 0.06 0.08 0.08 0.07 0.05 0.04 0.04 0.06 0.06 0.05 0.06 0.06 0.05 0.05 0.05 0.05 0.05 0.05 0.06 0.06 0.06 0.06
0.02 0.02 0.02 0.01 0.02 0.04 0.07 0.09 0.10 0.07 0.04 0.05 0.06 0.04 0.03 0.02 0.03 0.04 0.05 0.05 0.06 0.06 0.08 0.08 0.08 0.07 0.05 0.05 0.07 0.08 0.08 0.07 0.07 0.05 0.05 0.05 0.06 0.06 0.06 0.05 0.05 0.06 0.05
0.02 0.02 0.02 0.01 0.01 0.02 0.06 0.11 0.15 0.14 0.08 0.06 0.06 0.04 0.04 0.04 0.04 0.06 0.06 0.08 0.09 0.09 0.09 0.09 0.11 0.09 0.07 0.09 0.10 0.11 0.11 0.10 0.09 0.06 0.06 0.06 0.05 0.05 0.07 0.05 0.06 0.06 0.06
0.01 0.01 0.02 0.02 0.02 0.02 0.02 0.03 0.07 0.12 0.13 0.09 0.08 0.07 0.06 0.05 0.05 0.06 0.06 0.09 0.11 0.13 0.15 0.14 0.13 0.12 0.10 0.09 0.11 0.11 0.11 0.10 0.09 0.07 0.06 0.06 0.05 0.05 0.04 0.04 0.05 0.05 0.06
0.02 0.01 0.02 0.02 0.03 0.02 0.02 0.02 0.03 0.05 0.07 0.07 0.08 0.08 0.07 0.06 0.06 0.05 0.05 0.07 0.10 0.13 0.13 0.12 0.10 0.10 0.09 0.10 0.10 0.09 0.09 0.08 0.07 0.06 0.07 0.07 0.05 0.04 0.03 0.03 0.03 0.04 0.07
0.03 0.02 0.02 0.01 0.02 0.01 0.02 0.03 0.02 0.03 0.03 0.04 0.06 0.06 0.06 0.07 0.07 0.07 0.08 0.08 0.11 0.17 0.15 0.10 0.09 0.10 0.07 0.05 0.06 0.06 0.07 0.07 0.06 0.07 0.08 0.09 0.06 0.04 0.04 0.04 0.04 0.04 0.06
0.04 0.04 0.03 0.02 0.03 0.03 0.03 0.04 0.03 0.03 0.03 0.06 0.07 0.07 0.07 0.07 0.07 0.08 0.09 0.11 0.09 0.13 0.14 0.11 0.10 0.10 0.07 0.05 0.04 0.04 0.07 0.07 0.08 0.10 0.09 0.09 0.06 0.04 0.04 0.05 0.04 0.05 0.06
0.03 0.04 0.03 0.03 0.04 0.04 0.05 0.05 0.04 0.05 0.05 0.06 0.06 0.06 0.05 0.06 0.08 0.06 0.06 0.09 0.09 0.11 0.12 0.09 0.07 0.08 0.09 0.08 0.06 0.05 0.07 0.07 0.08 0.10 0.10 0.08 0.07 0.04 0.03 0.04 0.06 0.06 0.05
0.03 0.03 0.03 0.03 0.04 0.05 0.05 0.06 0.05 0.06 0.07 0.05 0.05 0.05 0.05 0.05 0.06 0.06 0.05 0.05 0.05 0.08 0.11 0.10 0.08 0.08 0.10 0.10 0.08 0.08 0.08 0.06 0.06 0.09 0.12 0.09 0.07 0.05 0.04 0.05 0.06 0.07 0.06
0.05 0.06 0.04 0.03 0.04 0.05 0.05 0.06 0.06 0.07 0.07 0.05 0.05 0.05 0.05 0.07 0.07 0.07 0.07 0.04 0.05 0.07 0.09 0.10 0.11 0.11 0.08 0.07 0.06 0.09 0.09 0.07 0.06 0.10 0.13 0.09 0.07 0.05 0.04 0.04 0.04 0.05 0.05
0.05 0.04 0.03 0.03 0.03 0.04 0.05 0.05 0.05 0.06 0.06 0.05 0.04 0.04 0.06 0.06 0.07 0.08 0.08 0.08 0.06 0.07 0.08 0.09 0.09 0.06 0.04 0.04 0.06 0.08 0.08 0.08 0.09 0.09 0.13 0.11 0.08 0.05 0.04 0.04 0.04 0.04 0.06
0.02 0.01 0.02 0.03 0.03 0.04 0.04 0.05 0.05 0.05 0.05 0.05 0.04 0.04 0.04 0.04 0.05 0.06 0.05 0.05 0.06 0.07 0.09 0.09 0.07 0.05 0.04 0.04 0.08 0.10 0.09 0.08 0.08 0.07 0.08 0.11 0.11 0.08 0.04 0.04 0.05 0.04 0.05
0.01 0.01 0.02 0.03 0.04 0.04 0.05 0.06 0.06 0.06 0.07 0.06 0.04 0.04 0.04 0.04 0.04 0.04 0.05 0.04 0.04 0.05 0.06 0.08 0.07 0.05 0.04 0.06 0.08 0.09 0.09 0.08 0.06 0.05 0.04 0.07 0.12 0.13 0.08 0.04 0.04 0.04 0.03
0.02 0.02 0.03 0.04 0.04 0.05 0.06 0.07 0.07 0.08 0.07 0.06 0.06 0.06 0.05 0.05 0.04 0.04 0.04 0.05 0.04 0.05 0.05 0.05 0.06 0.07 0.07 0.06 0.10 0.09 0.07 0.06 0.04 0.03 0.02 0.02 0.07 0.12 0.09 0.06 0.04 0.03 0.04
0.03 0.04 0.04 0.05 0.05 0.05 0.06 0.08 0.08 0.07 0.06 0.06 0.06 0.06 0.05 0.05 0.04 0.04 0.05 0.05 0.05 0.06 0.06 0.04 0.06 0.08 0.10 0.07 0.07 0.08 0.07 0.06 0.05 0.04 0.02 0.02 0.03 0.08 0.10 0.07 0.06 0.04 0.05
0.05 0.06 0.07 0.08 0.07 0.06 0.06 0.08 0.10 0.10 0.07 0.07 0.06 0.05 0.05 0.05 0.05 0.04 0.04 0.06 0.06 0.06 0.08 0.05 0.06 0.06 0.06 0.07 0.07 0.07 0.07 0.07 0.06 0.05 0.04 0.02 0.02 0.04 0.07 0.06 0.05 0.04 0.04
0.06 0.04 0.03 0.02 0.03 0.04 0.04 0.05 0.06 0.05 0.04 0.04 0.05 0.05 0.05 0.05 0.05 0.06 0.06 0.05 0.05 0.05 0.05 0.05 0.06 0.05 0.04 0.04 0.05 0.05 0.06 0.05 0.05 0.06 0.05 0.03 0.02 0.03 0.06 0.06 0.04 0.03 0.03
0.04 0.02 0.02 0.02 0.04 0.06 0.06 0.04 0.03 0.02 0.02 0.02 0.03 0.03 0.04 0.04 0.04 0.06 0.06 0.05 0.05 0.05 0.05 0.06 0.06 0.05 0.04 0.04 0.04 0.04 0.05 0.04 0.03 0.04 0.04 0.03 0.02 0.02 0.03 0.05 0.05 0.03 0.02
0.04 0.04 0.04 0.05 0.07 0.08 0.05 0.03 0.01 0.01 0.01 0.01 0.02 0.02 0.02 0.03 0.03 0.05 0.06 0.06 0.06 0.06 0.07 0.06 0.07 0.06 0.04 0.04 0.03 0.03 0.04 0.05 0.03 0.02 0.02 0.02 0.01 0.01 0.01 0.02 0.03 0.03 0.02
0.04 0.04 0.04 0.05 0.07 0.05 0.02 0.01 0.01 0.01 0.01 0.01 0.01 0.01 0.01 0.01 0.02 0.02 0.04 0.05 0.05 0.06 0.06 0.07 0.08 0.07 0.05 0.04 0.04 0.04 0.04 0.03 0.02 0.02 0.01 0.02 0.01 0.01 0.01 0.01 0.02 0.02 0.01
0.03 0.03 0.04 0.05 0.04 0.03 0.02 0.01 0.00 0.00 0.00 0.00 0.00 0.00 0.01 0.01 0.02 0.01 0.02 0.02 0.03 0.03 0.03 0.05 0.05 0.04 0.04 0.03 0.04 0.05 0.04 0.03 0.03 0.01 0.01 0.01 0.01 0.01 0.02 0.01 0.01 0.01 0.01
0.03 0.03 0.03 0.03 0.03 0.02 0.02 0.01 0.01 0.01 0.00 0.00 0.00 0.00 0.00 0.01 0.01 0.02 0.02 0.02 0.02 0.02 0.02 0.02 0.03 0.02 0.02 0.02 0.03 0.04 0.05 0.04 0.03 0.01 0.01 0.01 0.01 0.01 0.01 0.01 0.01 0.01 0.01
0.03 0.03 0.03 0.04 0.03 0.03 0.02 0.01 0.01 0.02 0.01 0.01 0.00 0.00 0.00 0.00 0.01 0.01 0.02 0.01 0.02 0.02 0.02 0.02 0.03 0.02 0.01 0.01 0.02 0.03 0.04 0.05 0.02 0.01 0.00 0.01 0.01 0.01 0.02 0.02 0.01 0.01 0.01
0.04 0.04 0.04 0.04 0.04 0.03 0.03 0.02 0.02 0.01 0.01 0.01 0.01 0.01 0.01 0.01 0.01 0.01 0.01 0.01 0.01 0.01 0.01 0.01 0.01 0.01 0.01 0.01 0.02 0.02 0.04 0.05 0.04 0.02 0.01 0.01 0.01 0.01 0.02 0.02 0.01 0.01 0.01
MSLP
1000.74 1000.97 1001.09 1001.12 1001.10 1001.08 1001.14 1001.31 1001.61 1002.06 1002.62 1003.23 1003.86 1004.45 1004.97 1005.41 1005.76 1006.05 1006.31 1006.54 1006.79 1007.05 1007.34 1007.67 1008.01 1008.37 1008.75 1009.12 1009.50 1009.87 1010.23 1010.60 1010.96 1011.32 1011.68 1012.04 1012.39 1012.72 1013.02 1013.29 1013.52 1013.72 1013.89
1001.30 1001.32 1001.25 1001.11 1000.94 1000.80 1000.76 1000.87 1001.16 1001.62 1002.22 1002.91 1003.62 1004.28 1004.86 1005.32 1005.66 1005.89 1006.04 1006.16 1006.29 1006.45 1006.66 1006.94 1007.28 1007.67 1008.09 1008.52 1008.95 1009.38 1009.80 1010.22 1010.63 1011.03 1011.44 1011.83 1012.20 1012.55 1012.85 1013.10 1013.30 1013.47 1013.60
1001.83 1001.71 1001.50 1001.25 1000.98 1000.76 1000.65 1000.71 1000.96 1001.42 1002.05 1002.78 1003.54 1004.26 1004.88 1005.34 1005.64 1005.79 1005.84 1005.83 1005.82 1005.86 1005.99 1006.21 1006.53 1006.94 1007.41 1007.90 1008.41 1008.91 1009.39 1009.86 1010.31 1010.75 1011.18 1011.59 1011.97 1012.31 1012.60 1012.84 1013.02 1013.16 1013.28
1002.32 1002.11 1001.85 1001.54 1001.23 1000.97 1000.82 1000.84 1001.06 1001.50 1002.12 1002.86 1003.63 1004.37 1004.99 1005.44 1005.69 1005.77 1005.70 1005.57 1005.43 1005.36 1005.39 1005.55 1005.85 1006.27 1006.77 1007.33 1007.90 1008.47 1009.01 1009.52 1010.00 1010.46 1010.89 1011.29 1011.66 1011.98 1012.25 1012.46 1012.63 1012.76 1012.87
1002.76 1002.54 1002.27 1001.98 1001.68 1001.42 1001.26 1001.25 1001.43 1001.82 1002.40 1003.10 1003.85 1004.57 1005.17 1005.59 1005.81 1005.81 1005.66 1005.43 1005.18 1005.00 1004.94 1005.04 1005.31 1005.72 1006.25 1006.84 1007.47 1008.08 1008.66 1009.19 1009.68 1010.13 1010.54 1010.91 1011.24 1011.52 1011.76 1011.95 1012.10 1012.22 1012.34
1003.18 1002.99 1002.78 1002.55 1002.30 1002.08 1001.92 1001.89 1002.02 1002.34 1002.84 1003.47 1004.16 1004.83 1005.40 1005.79 1005.96 1005.93 1005.72 1005.42 1005.09 1004.83 1004.70 1004.74 1004.96 1005.36 1005.89 1006.49 1007.13 1007.75 1008.34 1008.87 1009.34 1009.76 1010.12 1010.44 1010.71 1010.95 1011.14 1011.30 1011.44 1011.56 1011.69
1003.62 1003.49 1003.36 1003.21 1003.04 1002.87 1002.72 1002.66 1002.73 1002.97 1003.37 1003.90 1004.51 1005.11 1005.63 1005.99 1006.15 1006.10 1005.87 1005.54 1005.17 1004.86 1004.68 1004.67 1004.85 1005.20 1005.70 1006.28 1006.89 1007.49 1008.05 1008.54 1008.97 1009.32 1009.62 1009.88 1010.09 1010.27 1010.42 1010.55 1010.67 1010.79 1010.92
1004.10 1004.05 1004.00 1003.94 1003.85 1003.72 1003.59 1003.50 1003.51 1003.64 1003.93 1004.35 1004.86 1005.38 1005.85 1006.18 1006.34 1006.30 1006.09 1005.76 1005.39 1005.07 1004.85 1004.80 1004.92 1005.22 1005.65 1006.17 1006.72 1007.26 1007.75 1008.18 1008.53 1008.82 1009.05 1009.24 1009.39 1009.51 1009.62 1009.72 1009.83 1009.94 1010.08
1004.66 1004.66 1004.68 1004.69 1004.66 1004.57 1004.45 1004.33 1004.27 1004.31 1004.49 1004.79 1005.19 1005.62 1006.03 1006.34 1006.50 1006.49 1006.31 1006.02 1005.69 1005.37 1005.14 1005.05 1005.11 1005.34 1005.68 1006.10 1006.56 1007.00 1007.40 1007.75 1008.02 1008.23 1008.40 1008.52 1008.62 1008.71 1008.78 1008.86 1008.95 1009.06 1009.19
1005.30 1005.32 1005.39 1005.44 1005.44 1005.38 1005.26 1005.11 1004.99 1004.94 1005.01 1005.20 1005.48 1005.83 1006.17 1006.45 1006.62 1006.63 1006.50 1006.26 1005.97 1005.68 1005.45 1005.32 1005.33 1005.47 1005.70 1006.01 1006.35 1006.67 1006.97 1007.21 1007.40 1007.55 1007.66 1007.74 1007.81 1007.87 1007.93 1007.99 1008.07 1008.17 1008.28
1005.99 1006.02 1006.09 1006.16 1006.17 1006.11 1005.99 1005.82 1005.65 1005.53 1005.50 1005.58 1005.76 1006.01 1006.28 1006.52 1006.67 1006.70 1006.61 1006.42 1006.17 1005.91 1005.69 1005.54 1005.49 1005.53 1005.66 1005.84 1006.04 1006.25 1006.42 1006.57 1006.68 1006.77 1006.84 1006.90 1006.96 1007.01 1007.07 1007.13 1007.20 1007.29 1007.39
1006.72 1006.73 1006.78 1006.83 1006.84 1006.78 1006.64 1006.45 1006.25 1006.07 1005.96 1005.95 1006.03 1006.19 1006.38 1006.55 1006.67 1006.70 1006.63 1006.48 1006.27 1006.04 1005.82 1005.65 1005.55 1005.51 1005.53 1005.59 1005.66 1005.73 1005.80 1005.85 1005.89 1005.94 1005.98 1006.03 1006.09 1006.16 1006.22 1006.29 1006.36 1006.43 1006.51
1007.45 1007.43 1007.45 1007.47 1007.46 1007.38 1007.23 1007.03 1006.80 1006.59 1006.43 1006.34 1006.34 1006.40 1006.50 1006.60 1006.66 1006.67 1006.60 1006.46 1006.28 1006.07 1005.87 1005.69 1005.54 1005.43 1005.35 1005.29 1005.25 1005.20 1005.16 1005.12 1005.10 1005.11 1005.14 1005.19 1005.26 1005.34 1005.42 1005.49 1005.56 1005.62 1005.68
1008.16 1008.10 1008.08 1008.07 1008.02 1007.93 1007.77 1007.57 1007.34 1007.11 1006.91 1006.77 1006.69 1006.67 1006.68 1006.70 1006.70 1006.67 1006.58 1006.44 1006.27 1006.09 1005.89 1005.71 1005.53 1005.37 1005.21 1005.05 1004.90 1004.75 1004.61 1004.49 1004.41 1004.38 1004.39 1004.44 1004.52 1004.61 1004.70 1004.77 1004.83 1004.87 1004.90
1008.83 1008.74 1008.69 1008.63 1008.56 1008.44 1008.29 1008.09 1007.86 1007.64 1007.43 1007.26 1007.13 1007.04 1006.98 1006.92 1006.86 1006.77 1006.65 1006.51 1006.35 1006.17 1005.99 1005.81 1005.62 1005.42 1005.21 1004.97 1004.73 1004.49 1004.26 1004.07 1003.93 1003.86 1003.84 1003.87 1003.94 1004.03 1004.11 1004.17 1004.20 1004.21 1004.21
1009.48 1009.37 1009.27 1009.18 1009.07 1008.94 1008.78 1008.60 1008.39 1008.19 1007.99 1007.82 1007.66 1007.53 1007.41 1007.29 1007.16 1007.03 1006.88 1006.73 1006.57 1006.42 1006.26 1006.08 1005.90 1005.68 1005.43 1005.14 1004.84 1004.52 1004.22 1003.96 1003.76 1003.62 1003.56 1003.56 1003.61 1003.66 1003.71 1003.74 1003.73 1003.70 1003.65
1010.11 1009.97 1009.84 1009.72 1009.58 1009.43 1009.27 1009.11 1008.93 1008.76 1008.59 1008.43 1008.28 1008.13 1007.98 1007.82 1007.65 1007.48 1007.31 1007.15 1007.00 1006.86 1006.72 1006.57 1006.39 1006.18 1005.91 1005.60 1005.25 1004.88 1004.52 1004.19 1003.93 1003.74 1003.63 1003.57 1003.56 1003.57 1003.56 1003.53 1003.46 1003.36 1003.25
1010.73 1010.57 1010.41 1010.25 1010.09 1009.93 1009.77 1009.62 1009.47 1009.34 1009.21 1009.09 1008.96 1008.81 1008.65 1008.47 1008.28 1008.09 1007.90 1007.74 1007.59 1007.46 1007.35 1007.22 1007.07 1006.87 1006.60 1006.28 1005.91 1005.51 1005.11 1004.73 1004.42 1004.17 1004.00 1003.88 1003.80 1003.74 1003.66 1003.55 1003.40 1003.23 1003.04
1011.34 1011.17 1010.99 1010.79 1010.61 1010.43 1010.26 1010.12 1010.01 1009.91 1009.83 1009.74 1009.64 1009.52 1009.36 1009.18 1008.98 1008.78 1008.58 1008.41 1008.26 1008.15 1008.05 1007.95 1007.82 1007.64 1007.39 1007.08 1006.71 1006.30 1005.88 1005.48 1005.13 1004.83 1004.61 1004.43 1004.29 1004.15 1003.99 1003.80 1003.56 1003.30 1003.02
1011.95 1011.76 1011.56 1011.34 1011.13 1010.93 1010.76 1010.63 1010.53 1010.46 1010.41 1010.36 1010.29 1010.19 1010.05 1009.87 1009.66 1009.44 1009.23 1009.05 1008.90 1008.78 1008.69 1008.60 1008.49 1008.34 1008.12 1007.83 1007.49 1007.09 1006.68 1006.28 1005.92 1005.61 1005.34 1005.13 1004.93 1004.73 1004.50 1004.23 1003.91 1003.56 1003.20
1012.54 1012.34 1012.13 1011.89 1011.66 1011.45 1011.27 1011.13 1011.04 1010.98 1010.95 1010.91 1010.86 1010.77 1010.63 1010.45 1010.23 1009.99 1009.76 1009.55 1009.38 1009.25 1009.15 1009.06 1008.96 1008.83 1008.65 1008.40 1008.09 1007.74 1007.36 1006.99 1006.65 1006.34 1006.08 1005.84 1005.62 1005.38 1005.10 1004.77 1004.39 1003.97 1003.53
1013.11 1012.91 1012.69 1012.45 1012.21 1011.98 1011.79 1011.63 1011.53 1011.46 1011.42 1011.39 1011.33 1011.23 1011.08 1010.88 1010.63 1010.36 1010.09 1009.84 1009.63 1009.47 1009.35 1009.25 1009.16 1009.04 1008.89 1008.68 1008.42 1008.12 1007.81 1007.49 1007.19 1006.93 1006.69 1006.47 1006.25 1006.01 1005.72 1005.36 1004.95 1004.48 1003.99
1013.65 1013.47 1013.26 1013.02 1012.78 1012.54 1012.32 1012.14 1012.01 1011.91 1011.85 1011.78 1011.69 1011.56 1011.38 1011.14 1010.85 1010.54 1010.22 1009.92 1009.66 1009.46 1009.30 1009.18 1009.07 1008.96 1008.83 1008.66 1008.45 1008.22 1007.97 1007.72 1007.49 1007.29 1007.11 1006.94 1006.76 1006.55 1006.27 1005.93 1005.51 1005.03 1004.52
1014.17 1014.01 1013.82 1013.60 1013.35 1013.10 1012.86 1012.65 1012.48 1012.34 1012.22 1012.11 1011.97 1011.79 1011.56 1011.27 1010.93 1010.57 1010.19 1009.84 1009.53 1009.27 1009.07 1008.91 1008.79 1008.67 1008.55 1008.41 1008.24 1008.06 1007.88 1007.70 1007.55 1007.42 1007.31 1007.22 1007.10 1006.94 1006.73 1006.42 1006.04 1005.59 1005.08
1014.67 1014.55 1014.38 1014.17 1013.93 1013.67 1013.41 1013.17 1012.95 1012.75 1012.57 1012.40 1012.20 1011.96 1011.68 1011.33 1010.95 1010.53 1010.11 1009.71 1009.35 1009.05 1008.80 1008.61 1008.46 1008.32 1008.19 1008.06 1007.92 1007.78 1007.64 1007.52 1007.43 1007.37 1007.34 1007.31 1007.27 1007.19 1007.05 1006.82 1006.50 1006.10 1005.64
1015.15 1015.05 1014.91 1014.72 1014.49 1014.22 1013.94 1013.66 1013.40 1013.15 1012.91 1012.67 1012.41 1012.12 1011.79 1011.40 1010.98 1010.53 1010.08 1009.65 1009.26 1008.92 1008.64 1008.42 1008.23 1008.07 1007.93 1007.78 1007.64 1007.50 1007.38 1007.29 1007.24 1007.22 1007.24 1007.28 1007.31 1007.31 1007.24 1007.10 1006.86 1006.53 1006.14
Thickness
5766 5765 5765 5765 5764 5764 5763 5762 5762 5762 5761 5761 5760 5760 5760 5759 5758 5758 5758 5756 5756 5756 5756 5756 5755 5754 5753 5752 5751 5750 5749 5747 5745 5743 5742 5741 5739 5738 5736 5735 5734 5732 5731
5765 5764 5763 5763 5763 5762 5762 5761 5760 5760 5760 5759 5759 5759 5758 5758 5758 5757 5757 5756 5756 5755 5755 5755 5755 5754 5753 5752 5751 5749 5748 5747 5745 5743 5741 5740 5739 5737 5736 5735 5733 5732 5730
5764 5763 5762 5761 5761 5761 5760 5759 5758 5757 5757 5757 5756 5756 5757 5757 5757 5756 5756 5755 5755 5755 5755 5755 5754 5753 5752 5751 5750 5749 5748 5746 5744 5742 5740 5739 5738 5737 5735 5734 5733 5731 5730
5763 5762 5760 5759 5759 5759 5758 5757 5755 5754 5753 5753 5753 5754 5755 5755 5755 5755 5754 5754 5754 5754 5754 5754 5753 5752 5751 5750 5749 5748 5747 5745 5743 5741 5739 5738 5737 5736 5734 5733 5732 5730 5729
5762 5760 5758 5757 5757 5756 5755 5755 5753 5751 5749 5749 5750 5751 5752 5752 5752 5753 5752 5752 5752 5752 5752 5752 5751 5751 5750 5749 5748 5747 5745 5743 5741 5739 5738 5736 5735 5734 5733 5732 5731 5729 5728
5760 5758 5756 5755 5754 5753 5751 5750 5749 5748 5747 5746 5747 5748 5748 5749 5750 5750 5750 5750 5750 5750 5750 5749 5749 5748 5748 5747 5746 5745 5743 5741 5739 5737 5736 5734 5733 5732 5730 5730 5729 5728 5727
5757 5756 5754 5753 5751 5749 5748 5747 5745 5743 5742 5743 5741 5739 5742 5745 5745 5746 5747 5747 5747 5747 5747 5746 5746 5745 5745 5745 5744 5742 5741 5739 5737 5735 5733 5732 5730 5729 5728 5727 5726 5725 5724
5755 5754 5752 5750 5749 5746 5745 5743 5741 5739 5739 5740 5736 5732 5729 5732 5738 5743 5742 5742 5743 5743 5743 5743 5743 5743 5742 5741 5741 5739 5738 5736 5734 5733 5731 5730 5728 5726 5725 5725 5724 5723 5721
5753 5751 5750 5748 5746 5744 5741 5740 5739 5736 5733 5735 5735 5730 5724 5722 5727 5733 5736 5738 5738 5738 5739 5740 5740 5739 5739 5738 5737 5736 5735 5733 5732 5730 5729 5727 5725 5724 5723 5722 5721 5720 5719
5750 5748 5747 5745 5743 5741 5739 5737 5736 5734 5732 5729 5731 5732 5730 5728 5722 5721 5727 5731 5733 5733 5734 5736 5735 5735 5735 5734 5734 5733 5732 5730 5729 5727 5726 5724 5723 5721 5720 5719 5718 5717 5716
5746 5745 5744 5742 5740 5738 5736 5734 5733 5731 5729 5727 5726 5726 5726 5726 5724 5719 5717 5721 5725 5728 5729 5730 5730 5730 5730 5730 5729 5729 5729 5727 5726 5724 5723 5721 5720 5718 5717 5716 5714 5713 5713
5743 5742 5741 5739 5737 5735 5733 5731 5730 5727 5726 5724 5723 5723 5721 5720 5719 5717 5714 5714 5716 5720 5724 5725 5725 5725 5725 5725 5725 5725 5724 5724 5722 5721 5719 5718 5716 5715 5714 5712 5711 5709 5709
5738 5738 5737 5735 5734 5732 5731 5729 5726 5723 5722 5720 5719 5719 5719 5718 5718 5717 5714 5711 5711 5713 5716 5717 5719 5719 5720 5720 5720 5720 5720 5719 5718 5717 5715 5714 5712 5710 5709 5707 5706 5705 5704
5736 5735 5734 5732 5731 5729 5728 5725 5723 5720 5718 5717 5717 5717 5716 5716 5716 5714 5712 5708 5705 5705 5707 5709 5712 5713 5714 5715 5715 5715 5715 5714 5712 5711 5710 5709 5708 5705 5704 5702 5701 5700 5699
5734 5732 5730 5728 5726 5725 5724 5721 5718 5716 5715 5713 5713 5712 5712 5712 5712 5712 5710 5709 5704 5698 5697 5701 5704 5707 5708 5709 5710 5709 5708 5706 5706 5706 5704 5703 5702 5701 5699 5697 5696 5695 5693
5730 5728 5726 5724 5722 5721 5719 5717 5714 5712 5710 5709 5709 5708 5707 5706 5706 5706 5706 5705 5704 5700 5694 5696 5698 5700 5702 5702 5702 5702 5701 5701 5701 5700 5699 5697 5696 5695 5693 5692 5690 5689 5688
5727 5724 5722 5720 5718 5716 5714 5712 5709 5708 5706 5704 5704 5702 5701 5701 5701 5700 5700 5700 5698 5696 5691 5690 5692 5694 5694 5694 5694 5694 5693 5693 5692 5692 5692 5691 5690 5689 5687 5686 5685 5683 5681
5724 5721 5719 5716 5714 5712 5709 5707 5705 5704 5702 5700 5699 5697 5696 5697 5695 5695 5694 5692 5691 5690 5687 5683 5683 5685 5686 5687 5686 5685 5685 5685 5684 5684 5684 5684 5683 5682 5681 5680 5678 5677 5675
5720 5718 5715 5712 5709 5707 5705 5703 5701 5699 5698 5696 5694 5692 5691 5690 5689 5689 5687 5686 5685 5686 5683 5680 5677 5677 5677 5678 5677 5677 5677 5676 5677 5676 5676 5676 5675 5675 5674 5673 5672 5670 5669
5716 5713 5711 5708 5705 5703 5700 5699 5697 5694 5692 5690 5689 5687 5686 5685 5684 5683 5683 5681 5680 5678 5676 5673 5671 5669 5669 5669 5668 5666 5665 5667 5668 5669 5669 5668 5668 5667 5667 5666 5665 5663 5662
5713 5710 5706 5703 5701 5699 5697 5694 5692 5689 5686 5684 5683 5682 5681 5680 5680 5679 5678 5675 5674 5671 5668 5665 5663 5662 5661 5660 5659 5659 5658 5658 5659 5661 5660 5660 5660 5659 5659 5658 5657 5656 5655
5708 5705 5701 5698 5696 5695 5692 5690 5687 5684 5681 5679 5677 5675 5675 5674 5673 5673 5673 5671 5669 5666 5662 5659 5657 5655 5654 5654 5654 5654 5651 5649 5649 5652 5651 5651 5652 5651 5651 5651 5650 5649 5649
5704 5700 5697 5694 5691 5688 5686 5684 5682 5678 5675 5673 5671 5669 5669 5668 5666 5665 5665 5664 5662 5661 5660 5656 5653 5652 5651 5650 5648 5646 5645 5643 5643 5645 5644 5643 5643 5642 5644 5644 5644 5643 5642
5699 5696 5692 5690 5686 5683 5681 5678 5676 5672 5669 5667 5665 5663 5661 5659 5659 5657 5656 5654 5653 5653 5653 5652 5651 5650 5649 5648 5645 5643 5641 5639 5638 5638 5638 5635 5635 5635 5637 5637 5637 5636 5636
5695 5691 5688 5684 5681 5677 5676 5673 5670 5666 5663 5661 5659 5658 5655 5653 5653 5651 5648 5646 5646 5646 5647 5647 5646 5645 5644 5643 5641 5637 5634 5631 5628 5629 5631 5629 5628 5627 5628 5629 5629 5629 5629
5691 5688 5684 5680 5677 5673 5670 5667 5664 5660 5656 5654 5652 5651 5650 5648 5647 5645 5641 5639 5637 5638 5639 5639 5638 5637 5637 5636 5635 5633 5630 5626 5623 5622 5624 5622 5621 5619 5618 5621 5622 5622 5621